Location: Winthrop
(48.4780°N, 120.1850°W)
Time: 18:02:44
(UTC-07:00)

Explorer 7 - Pass Details

Date: 31 January 2023
Orbit: 478 x 657 km, 50.3° (Epoch: 30 March)

Event Time Altitude Azimuth Distance (km) Brightness Sun altitude
Rises 14:30:45 0° 256° (WSW) 2,751 11.2 17.6°
Reaches altitude 10° 14:32:57 10° 257° (WSW) 1,886 10.4 17.4°
Maximum altitude 14:37:17 83° 344° (NNW) 612 7.3 17.0°
Drops below altitude 10° 14:41:54 10° 75° (ENE) 2,003 9.3 16.5°
Sets 14:44:17 0° 76° (ENE) 2,937 10.1 16.3°
